Time,TemperatureF,DewpointF,PressureIn,WindDirection,WindDirectionDegrees,WindSpeedMPH,WindSpeedGustMPH,Humidity,HourlyPrecipIn,Conditions,Clouds,dailyrainin,SoftwareType,DateUTC
2013-03-16 00:00:00,55.1,47.6,29.99,ESE,113,0.0,0.4,76,0.00,,,0.00,WUHU216HW,2013-03-16 07:00:00,
2013-03-16 00:05:00,55.1,47.6,29.99,ESE,113,0.0,0.4,76,0.00,,,0.00,WUHU216HW,2013-03-16 07:05:00,
2013-03-16 00:10:00,54.9,47.4,29.99,ESE,113,0.0,0.2,76,0.00,,,0.00,WUHU216HW,2013-03-16 07:10:00,
2013-03-16 00:15:00,54.9,47.4,29.99,ESE,113,0.0,0.0,76,0.00,,,0.00,WUHU216HW,2013-03-16 07:15:00,
2013-03-16 00:20:00,54.9,47.1,29.99,ESE,113,0.0,0.0,75,0.00,,,0.00,WUHU216HW,2013-03-16 07:20:00,
2013-03-16 00:25:00,54.7,47.3,29.98,ESE,113,0.0,0.0,76,0.00,,,0.00,WUHU216HW,2013-03-16 07:25:00,
2013-03-16 00:30:00,54.4,47.0,29.98,ESE,113,0.0,0.0,76,0.00,,,0.00,WUHU216HW,2013-03-16 07:30:00,
2013-03-16 00:35:00,54.2,46.8,29.99,ESE,113,0.0,0.0,76,0.00,,,0.00,WUHU216HW,2013-03-16 07:35:00,
2013-03-16 00:40:00,54.0,46.3,29.99,NNE,23,0.0,0.7,75,0.00,,,0.00,WUHU216HW,2013-03-16 07:40:00,
2013-03-16 00:45:00,54.0,46.3,29.99,NNE,23,0.0,0.7,75,0.00,,,0.00,WUHU216HW,2013-03-16 07:45:00,
2013-03-16 00:50:00,54.0,46.3,29.98,NNE,23,0.0,0.0,75,0.00,,,0.00,WUHU216HW,2013-03-16 07:50:00,
2013-03-16 00:55:00,53.8,46.1,29.98,NNE,23,0.0,0.0,75,0.00,,,0.00,WUHU216HW,2013-03-16 07:55:00,
2013-03-16 01:00:00,53.8,46.1,29.98,NNE,23,0.0,0.0,75,0.00,,,0.00,WUHU216HW,2013-03-16 08:00:00,
2013-03-16 01:05:00,53.6,45.9,29.98,NNE,23,0.0,0.0,75,0.00,,,0.00,WUHU216HW,2013-03-16 08:05:00,
2013-03-16 01:10:00,53.5,46.1,29.97,NNE,23,0.0,0.4,76,0.00,,,0.00,WUHU216HW,2013-03-16 08:10:00,
2013-03-16 01:15:00,53.3,45.9,29.97,NNE,23,0.0,0.4,76,0.00,,,0.00,WUHU216HW,2013-03-16 08:15:00,
2013-03-16 01:20:00,53.1,45.4,29.97,NNE,23,0.0,0.0,75,0.00,,,0.00,WUHU216HW,2013-03-16 08:20:00,
2013-03-16 01:25:00,52.9,45.5,29.97,NNE,23,0.0,0.2,76,0.00,,,0.00,WUHU216HW,2013-03-16 08:25:00,
2013-03-16 01:30:00,52.9,45.5,29.97,NNE,23,0.0,0.2,76,0.00,,,0.00,WUHU216HW,2013-03-16 08:30:00,
2013-03-16 01:35:00,52.7,45.4,29.97,NNE,23,0.4,0.4,76,0.00,,,0.00,WUHU216HW,2013-03-16 08:35:00,
2013-03-16 01:40:00,52.6,45.2,29.97,NNE,23,0.2,0.7,76,0.00,,,0.00,WUHU216HW,2013-03-16 08:40:00,
2013-03-16 01:45:00,52.6,45.5,29.97,NNE,23,0.0,0.7,77,0.00,,,0.00,WUHU216HW,2013-03-16 08:45:00,
2013-03-16 01:50:00,52.4,45.4,29.97,NNE,23,0.0,0.4,77,0.00,,,0.00,WUHU216HW,2013-03-16 08:50:00,
2013-03-16 01:55:00,52.2,45.2,29.97,NE,45,0.0,0.4,77,0.00,,,0.00,WUHU216HW,2013-03-16 08:55:00,
2013-03-16 02:00:00,52.2,45.5,29.97,NE,45,0.4,0.4,78,0.00,,,0.00,WUHU216HW,2013-03-16 09:00:00,
2013-03-16 02:05:00,51.8,45.5,29.97,NE,45,0.4,0.4,79,0.00,,,0.00,WUHU216HW,2013-03-16 09:05:00,
2013-03-16 02:10:00,51.7,45.4,29.97,NE,45,0.0,0.4,79,0.00,,,0.00,WUHU216HW,2013-03-16 09:10:00,
2013-03-16 02:15:00,51.7,45.4,29.97,NE,45,0.0,0.4,79,0.00,,,0.00,WUHU216HW,2013-03-16 09:15:00,
2013-03-16 02:20:00,51.5,45.5,29.97,NE,45,0.4,0.7,80,0.00,,,0.00,WUHU216HW,2013-03-16 09:20:00,
2013-03-16 02:25:00,51.3,45.4,29.97,NE,45,0.0,0.7,80,0.00,,,0.00,WUHU216HW,2013-03-16 09:25:00,
2013-03-16 02:30:00,51.3,45.4,29.97,NE,45,0.0,0.4,80,0.00,,,0.00,WUHU216HW,2013-03-16 09:30:00,
2013-03-16 02:35:00,51.3,45.4,29.97,NE,45,0.0,0.2,80,0.00,,,0.00,WUHU216HW,2013-03-16 09:35:00,
2013-03-16 02:40:00,51.5,45.5,29.97,NE,45,0.0,0.2,80,0.00,,,0.00,WUHU216HW,2013-03-16 09:40:00,
2013-03-16 02:45:00,51.5,45.5,29.97,NE,45,0.0,0.0,80,0.00,,,0.00,WUHU216HW,2013-03-16 09:45:00,
2013-03-16 02:50:00,51.5,45.5,29.97,NE,45,0.4,0.4,80,0.00,,,0.00,WUHU216HW,2013-03-16 09:50:00,
2013-03-16 02:55:00,51.5,45.5,29.97,NE,45,0.0,0.4,80,0.00,,,0.00,WUHU216HW,2013-03-16 09:55:00,
2013-03-16 03:00:00,51.5,45.5,29.97,NE,45,0.0,0.4,80,0.00,,,0.00,WUHU216HW,2013-03-16 10:00:00,
2013-03-16 03:05:00,51.5,45.5,29.97,NE,45,0.0,0.0,80,0.00,,,0.00,WUHU216HW,2013-03-16 10:05:00,
2013-03-16 03:10:00,51.5,45.2,29.97,North,0,0.4,1.3,79,0.00,,,0.00,WUHU216HW,2013-03-16 10:10:00,
2013-03-16 03:15:00,51.3,45.0,29.97,North,0,0.2,1.3,79,0.00,,,0.00,WUHU216HW,2013-03-16 10:15:00,
2013-03-16 03:20:00,51.1,44.8,29.97,North,0,0.0,0.4,79,0.00,,,0.00,WUHU216HW,2013-03-16 10:20:00,
2013-03-16 03:25:00,51.1,45.2,29.97,NE,45,0.4,1.3,80,0.00,,,0.00,WUHU216HW,2013-03-16 10:25:00,
2013-03-16 03:30:00,51.1,45.2,29.97,ESE,113,0.4,1.3,80,0.00,,,0.00,WUHU216HW,2013-03-16 10:30:00,
2013-03-16 03:35:00,51.1,45.2,29.97,East,90,0.0,1.1,80,0.00,,,0.00,WUHU216HW,2013-03-16 10:35:00,
2013-03-16 03:40:00,51.1,45.2,29.97,East,90,0.0,0.4,80,0.00,,,0.00,WUHU216HW,2013-03-16 10:40:00,
2013-03-16 03:45:00,51.1,45.2,29.97,East,90,0.2,0.7,80,0.00,,,0.00,WUHU216HW,2013-03-16 10:45:00,
2013-03-16 03:50:00,50.9,45.0,29.97,NE,45,0.4,0.7,80,0.00,,,0.00,WUHU216HW,2013-03-16 10:50:00,
2013-03-16 03:55:00,50.8,44.8,29.97,NE,45,0.0,0.4,80,0.00,,,0.00,WUHU216HW,2013-03-16 10:55:00,
2013-03-16 04:00:00,50.8,44.8,29.97,NE,45,0.0,0.4,80,0.00,,,0.00,WUHU216HW,2013-03-16 11:00:00,
2013-03-16 04:05:00,50.8,44.8,29.98,NE,45,0.0,0.0,80,0.00,,,0.00,WUHU216HW,2013-03-16 11:05:00,
2013-03-16 04:10:00,50.6,44.6,29.98,North,0,0.0,0.4,80,0.00,,,0.00,WUHU216HW,2013-03-16 11:10:00,
2013-03-16 04:15:00,50.4,44.5,29.98,North,0,0.0,0.4,80,0.00,,,0.00,WUHU216HW,2013-03-16 11:15:00,
2013-03-16 04:20:00,50.4,44.5,29.98,North,0,0.0,0.0,80,0.00,,,0.00,WUHU216HW,2013-03-16 11:20:00,
2013-03-16 04:25:00,50.2,44.3,29.97,North,0,0.4,0.9,80,0.00,,,0.00,WUHU216HW,2013-03-16 11:25:00,
2013-03-16 04:30:00,50.0,44.1,29.97,North,0,0.4,0.9,80,0.00,,,0.00,WUHU216HW,2013-03-16 11:30:00,
2013-03-16 04:35:00,50.0,44.4,29.97,East,90,1.1,1.1,81,0.00,,,0.00,WUHU216HW,2013-03-16 11:35:00,
2013-03-16 04:40:00,50.0,44.4,29.97,East,90,0.0,1.1,81,0.00,,,0.00,WUHU216HW,2013-03-16 11:40:00,
2013-03-16 04:45:00,50.0,44.4,29.97,East,90,0.7,1.1,81,0.00,,,0.00,WUHU216HW,2013-03-16 11:45:00,
2013-03-16 04:50:00,50.0,44.4,29.97,East,90,0.0,0.7,81,0.00,,,0.00,WUHU216HW,2013-03-16 11:50:00,
2013-03-16 04:55:00,50.0,44.4,29.97,East,90,0.4,0.7,81,0.00,,,0.00,WUHU216HW,2013-03-16 11:55:00,
2013-03-16 05:00:00,50.0,44.4,29.97,East,90,0.0,0.4,81,0.00,,,0.00,WUHU216HW,2013-03-16 12:00:00,
2013-03-16 05:05:00,50.0,44.4,29.97,East,90,0.0,0.4,81,0.00,,,0.00,WUHU216HW,2013-03-16 12:05:00,
2013-03-16 05:10:00,49.9,44.2,29.97,East,90,0.0,0.4,81,0.00,,,0.00,WUHU216HW,2013-03-16 12:10:00,
2013-03-16 05:15:00,49.7,44.0,29.97,East,90,0.0,0.4,81,0.00,,,0.00,WUHU216HW,2013-03-16 12:15:00,
2013-03-16 05:20:00,49.5,43.8,29.97,East,90,0.0,0.0,81,0.00,,,0.00,WUHU216HW,2013-03-16 12:20:00,
2013-03-16 05:25:00,49.3,43.7,29.97,East,90,0.0,0.0,81,0.00,,,0.00,WUHU216HW,2013-03-16 12:25:00,
2013-03-16 05:30:00,49.3,43.7,29.97,East,90,0.0,0.0,81,0.00,,,0.00,WUHU216HW,2013-03-16 12:30:00,
2013-03-16 05:35:00,49.3,43.7,29.97,East,90,0.0,0.4,81,0.00,,,0.00,WUHU216HW,2013-03-16 12:35:00,
2013-03-16 05:40:00,49.0,43.7,29.97,East,90,0.4,0.4,82,0.00,,,0.00,WUHU216HW,2013-03-16 12:40:00,
2013-03-16 05:45:00,48.6,43.3,29.97,East,90,0.0,0.4,82,0.00,,,0.00,WUHU216HW,2013-03-16 12:45:00,
2013-03-16 05:50:00,48.6,43.3,29.97,East,90,0.0,0.2,82,0.00,,,0.00,WUHU216HW,2013-03-16 12:50:00,
2013-03-16 05:55:00,48.6,43.3,29.98,East,90,0.0,0.2,82,0.00,,,0.00,WUHU216HW,2013-03-16 12:55:00,
2013-03-16 06:00:00,48.4,43.1,29.98,East,90,0.2,0.2,82,0.00,,,0.00,WUHU216HW,2013-03-16 13:00:00,
2013-03-16 06:05:00,48.2,42.7,29.97,East,90,0.0,0.4,81,0.00,,,0.00,WUHU216HW,2013-03-16 13:05:00,
2013-03-16 06:10:00,48.1,42.5,29.97,East,90,0.0,0.4,81,0.00,,,0.00,WUHU216HW,2013-03-16 13:10:00,
2013-03-16 06:15:00,48.1,42.5,29.97,East,90,0.0,0.4,81,0.00,,,0.00,WUHU216HW,2013-03-16 13:15:00,
2013-03-16 06:20:00,48.1,42.5,29.97,East,90,0.0,0.4,81,0.00,,,0.00,WUHU216HW,2013-03-16 13:20:00,
2013-03-16 06:25:00,47.9,42.3,29.97,East,90,0.0,0.2,81,0.00,,,0.00,WUHU216HW,2013-03-16 13:25:00,
2013-03-16 06:30:00,47.9,42.3,29.97,East,90,0.4,0.4,81,0.00,,,0.00,WUHU216HW,2013-03-16 13:30:00,
2013-03-16 06:35:00,47.9,42.3,29.97,East,90,0.0,0.4,81,0.00,,,0.00,WUHU216HW,2013-03-16 13:35:00,
2013-03-16 06:40:00,47.9,42.3,29.97,East,90,0.0,0.4,81,0.00,,,0.00,WUHU216HW,2013-03-16 13:40:00,
2013-03-16 06:45:00,47.9,42.3,29.96,East,90,0.0,0.0,81,0.00,,,0.00,WUHU216HW,2013-03-16 13:45:00,
2013-03-16 06:50:00,47.9,42.3,29.96,East,90,0.0,0.0,81,0.00,,,0.00,WUHU216HW,2013-03-16 13:50:00,
2013-03-16 06:55:00,47.7,42.5,29.97,East,90,0.0,0.4,82,0.00,,,0.00,WUHU216HW,2013-03-16 13:55:00,
2013-03-16 07:00:00,47.5,42.6,29.97,East,90,0.2,0.4,83,0.00,,,0.00,WUHU216HW,2013-03-16 14:00:00,
2013-03-16 07:05:00,47.3,42.5,29.97,East,90,0.0,0.2,83,0.00,,,0.00,WUHU216HW,2013-03-16 14:05:00,
2013-03-16 07:10:00,47.2,42.3,29.97,East,90,0.0,0.4,83,0.00,,,0.00,WUHU216HW,2013-03-16 14:10:00,
2013-03-16 07:15:00,47.2,42.3,29.97,East,90,0.0,0.4,83,0.00,,,0.00,WUHU216HW,2013-03-16 14:15:00,
2013-03-16 07:20:00,47.0,42.1,29.97,East,90,0.4,0.4,83,0.00,,,0.00,WUHU216HW,2013-03-16 14:20:00,
2013-03-16 07:25:00,46.8,42.0,29.97,East,90,0.0,0.4,83,0.00,,,0.00,WUHU216HW,2013-03-16 14:25:00,
2013-03-16 07:30:00,46.8,41.6,29.98,East,90,0.0,0.4,82,0.00,,,0.00,WUHU216HW,2013-03-16 14:30:00,
2013-03-16 07:35:00,46.8,41.6,29.99,East,90,0.0,0.0,82,0.00,,,0.00,WUHU216HW,2013-03-16 14:35:00,
2013-03-16 07:40:00,46.8,41.6,29.99,East,90,0.0,0.0,82,0.00,,,0.00,WUHU216HW,2013-03-16 14:40:00,
2013-03-16 07:45:00,46.8,41.6,29.99,East,90,0.0,0.0,82,0.00,,,0.00,WUHU216HW,2013-03-16 14:45:00,
2013-03-16 07:50:00,46.8,42.0,29.99,East,90,0.0,0.4,83,0.00,,,0.00,WUHU216HW,2013-03-16 14:50:00,
2013-03-16 07:55:00,46.8,42.0,29.99,East,90,0.0,0.4,83,0.00,,,0.00,WUHU216HW,2013-03-16 14:55:00,
2013-03-16 08:00:00,47.0,42.1,29.98,East,90,0.0,0.4,83,0.00,,,0.00,WUHU216HW,2013-03-16 15:00:00,
2013-03-16 08:05:00,47.2,42.3,29.98,NW,315,1.1,1.1,83,0.00,,,0.00,WUHU216HW,2013-03-16 15:05:00,
2013-03-16 08:10:00,47.3,42.5,29.98,NW,315,0.0,1.1,83,0.00,,,0.00,WUHU216HW,2013-03-16 15:10:00,
2013-03-16 08:15:00,47.5,42.6,29.99,NW,315,0.0,1.1,83,0.00,,,0.00,WUHU216HW,2013-03-16 15:15:00,
2013-03-16 08:20:00,47.7,42.8,29.98,NW,315,0.2,0.2,83,0.00,,,0.00,WUHU216HW,2013-03-16 15:20:00,
2013-03-16 08:25:00,47.9,43.3,29.98,NW,315,0.4,0.4,84,0.00,,,0.00,WUHU216HW,2013-03-16 15:25:00,
2013-03-16 08:30:00,48.2,43.6,29.99,NW,315,0.0,0.4,84,0.00,,,0.00,WUHU216HW,2013-03-16 15:30:00,
2013-03-16 08:35:00,48.6,43.9,29.99,NW,315,0.0,0.4,84,0.00,,,0.00,WUHU216HW,2013-03-16 15:35:00,
2013-03-16 08:40:00,49.0,44.7,30.00,NNW,338,0.7,0.9,85,0.00,,,0.00,WUHU216HW,2013-03-16 15:40:00,
2013-03-16 08:45:00,49.3,44.9,30.00,NNW,338,0.0,0.9,85,0.00,,,0.00,WUHU216HW,2013-03-16 15:45:00,
2013-03-16 08:50:00,49.9,45.8,30.00,NNW,338,0.0,0.9,86,0.00,,,0.00,WUHU216HW,2013-03-16 15:50:00,
2013-03-16 08:55:00,50.2,46.1,30.00,NNW,338,0.0,0.0,86,0.00,,,0.00,WUHU216HW,2013-03-16 15:55:00,
2013-03-16 09:00:00,50.8,46.4,30.00,NNW,338,0.0,0.0,85,0.00,,,0.00,WUHU216HW,2013-03-16 16:00:00,
2013-03-16 09:05:00,51.3,46.6,30.00,NNW,338,0.0,0.4,84,0.00,,,0.00,WUHU216HW,2013-03-16 16:05:00,
2013-03-16 09:10:00,52.0,47.0,30.01,NNW,338,0.7,0.7,83,0.00,,,0.00,WUHU216HW,2013-03-16 16:10:00,
2013-03-16 09:15:00,52.6,46.9,30.01,ENE,68,1.3,1.6,81,0.00,,,0.00,WUHU216HW,2013-03-16 16:15:00,
2013-03-16 09:20:00,53.5,47.2,30.01,North,0,0.9,1.6,79,0.00,,,0.00,WUHU216HW,2013-03-16 16:20:00,
2013-03-16 09:25:00,54.2,47.2,30.01,WNW,293,1.8,1.8,77,0.00,,,0.00,WUHU216HW,2013-03-16 16:25:00,
2013-03-16 09:30:00,54.7,47.6,30.01,WNW,293,1.8,2.2,77,0.00,,,0.00,WUHU216HW,2013-03-16 16:30:00,
2013-03-16 09:35:00,55.3,47.8,30.01,WNW,293,0.7,2.2,76,0.00,,,0.00,WUHU216HW,2013-03-16 16:35:00,
2013-03-16 09:40:00,55.8,48.3,30.01,WNW,293,0.9,2.2,76,0.00,,,0.00,WUHU216HW,2013-03-16 16:40:00,
2013-03-16 09:45:00,56.3,48.5,30.01,West,270,1.6,1.8,75,0.00,,,0.00,WUHU216HW,2013-03-16 16:45:00,
2013-03-16 09:50:00,57.1,48.8,30.01,WNW,293,0.9,1.8,74,0.00,,,0.00,WUHU216HW,2013-03-16 16:50:00,
2013-03-16 09:55:00,57.6,49.0,30.01,SSW,203,1.1,1.6,73,0.00,,,0.00,WUHU216HW,2013-03-16 16:55:00,
2013-03-16 10:00:00,58.0,49.3,30.01,WSW,248,0.4,2.7,73,0.00,,,0.00,WUHU216HW,2013-03-16 17:00:00,
2013-03-16 10:05:00,58.5,49.9,30.01,WSW,248,0.0,2.7,73,0.00,,,0.00,WUHU216HW,2013-03-16 17:05:00,
2013-03-16 10:10:00,58.9,49.9,30.00,WSW,248,1.1,1.6,72,0.00,,,0.00,WUHU216HW,2013-03-16 17:10:00,
2013-03-16 10:15:00,59.4,50.0,30.00,SW,225,1.1,2.0,71,0.00,,,0.00,WUHU216HW,2013-03-16 17:15:00,
2013-03-16 10:20:00,59.9,50.6,30.00,SSW,203,1.6,2.0,71,0.00,,,0.00,WUHU216HW,2013-03-16 17:20:00,
2013-03-16 10:25:00,60.3,50.1,30.00,SSW,203,0.9,1.8,69,0.00,,,0.00,WUHU216HW,2013-03-16 17:25:00,
2013-03-16 10:30:00,60.8,50.7,30.00,SW,225,1.6,1.8,69,0.00,,,0.00,WUHU216HW,2013-03-16 17:30:00,
2013-03-16 10:35:00,61.2,50.6,30.00,SW,225,1.1,1.8,68,0.00,,,0.00,WUHU216HW,2013-03-16 17:35:00,
2013-03-16 10:40:00,61.7,51.1,30.00,SSW,203,0.4,2.2,68,0.00,,,0.00,WUHU216HW,2013-03-16 17:40:00,
2013-03-16 10:45:00,62.3,50.8,29.99,NW,315,1.1,2.2,66,0.00,,,0.00,WUHU216HW,2013-03-16 17:45:00,
2013-03-16 10:50:00,62.6,50.7,29.99,West,270,0.0,1.6,65,0.00,,,0.00,WUHU216HW,2013-03-16 17:50:00,
2013-03-16 10:55:00,63.2,50.8,30.00,SE,135,0.0,1.6,64,0.00,,,0.00,WUHU216HW,2013-03-16 17:55:00,
2013-03-16 11:00:00,63.7,50.4,29.99,SSE,158,1.6,1.8,62,0.00,,,0.00,WUHU216HW,2013-03-16 18:00:00,
2013-03-16 11:05:00,64.3,51.0,29.99,SSE,158,1.6,1.8,62,0.00,,,0.00,WUHU216HW,2013-03-16 18:05:00,
2013-03-16 11:10:00,64.6,50.9,29.99,SSW,203,1.3,2.9,61,0.00,,,0.00,WUHU216HW,2013-03-16 18:10:00,
2013-03-16 11:15:00,65.2,51.4,29.99,SW,225,1.8,2.9,61,0.00,,,0.00,WUHU216HW,2013-03-16 18:15:00,
2013-03-16 11:20:00,65.5,49.9,29.99,ENE,68,0.7,2.2,57,0.00,,,0.00,WUHU216HW,2013-03-16 18:20:00,
2013-03-16 11:25:00,65.9,50.7,30.00,SW,225,0.9,2.2,58,0.00,,,0.00,WUHU216HW,2013-03-16 18:25:00,
2013-03-16 11:30:00,66.4,51.2,30.00,West,270,3.1,4.0,58,0.00,,,0.00,WUHU216HW,2013-03-16 18:30:00,
2013-03-16 11:35:00,66.6,51.4,30.00,WSW,248,1.8,4.0,58,0.00,,,0.00,WUHU216HW,2013-03-16 18:35:00,
2013-03-16 11:40:00,67.1,51.8,30.00,WSW,248,0.9,3.4,58,0.00,,,0.00,WUHU216HW,2013-03-16 18:40:00,
2013-03-16 11:45:00,67.3,51.6,30.00,WSW,248,1.6,3.4,57,0.00,,,0.00,WUHU216HW,2013-03-16 18:45:00,
2013-03-16 11:50:00,67.7,50.9,30.00,West,270,2.5,5.4,55,0.00,,,0.00,WUHU216HW,2013-03-16 18:50:00,
2013-03-16 11:55:00,68.0,51.2,30.00,West,270,4.5,5.4,55,0.00,,,0.00,WUHU216HW,2013-03-16 18:55:00,
2013-03-16 12:00:00,68.4,51.6,30.00,West,270,4.0,5.4,55,0.00,,,0.00,WUHU216HW,2013-03-16 19:00:00,
2013-03-16 12:05:00,68.6,51.8,30.00,WSW,248,2.2,5.1,55,0.00,,,0.00,WUHU216HW,2013-03-16 19:05:00,
2013-03-16 12:10:00,68.9,51.6,30.01,West,270,5.8,5.8,54,0.00,,,0.00,WUHU216HW,2013-03-16 19:10:00,
2013-03-16 12:15:00,69.1,51.2,30.01,WNW,293,5.8,6.7,53,0.00,,,0.00,WUHU216HW,2013-03-16 19:15:00,
2013-03-16 12:20:00,69.1,50.8,30.01,West,270,3.6,7.4,52,0.00,,,0.00,WUHU216HW,2013-03-16 19:20:00,
2013-03-16 12:25:00,68.8,51.0,30.01,NW,315,4.0,9.2,53,0.00,,,0.00,WUHU216HW,2013-03-16 19:25:00,
2013-03-16 12:30:00,68.8,51.0,30.01,West,270,5.4,9.2,53,0.00,,,0.00,WUHU216HW,2013-03-16 19:30:00,
2013-03-16 12:35:00,68.6,51.2,30.02,WNW,293,6.7,7.2,54,0.00,,,0.00,WUHU216HW,2013-03-16 19:35:00,
2013-03-16 12:40:00,68.4,52.0,30.02,WSW,248,4.9,6.7,56,0.00,,,0.00,WUHU216HW,2013-03-16 19:40:00,
2013-03-16 12:45:00,68.4,52.0,30.01,WNW,293,3.4,6.7,56,0.00,,,0.00,WUHU216HW,2013-03-16 19:45:00,
2013-03-16 12:50:00,68.4,52.0,30.01,West,270,5.4,5.6,56,0.00,,,0.00,WUHU216HW,2013-03-16 19:50:00,
2013-03-16 12:55:00,68.4,52.0,30.01,West,270,4.0,6.9,56,0.00,,,0.00,WUHU216HW,2013-03-16 19:55:00,
2013-03-16 13:00:00,68.4,52.6,30.01,WNW,293,3.6,6.9,57,0.00,,,0.00,WUHU216HW,2013-03-16 20:00:00,
2013-03-16 13:05:00,68.4,52.0,30.01,WSW,248,1.1,5.1,56,0.00,,,0.00,WUHU216HW,2013-03-16 20:05:00,
2013-03-16 13:10:00,68.6,52.8,30.01,SW,225,1.3,4.7,57,0.00,,,0.00,WUHU216HW,2013-03-16 20:10:00,
2013-03-16 13:15:00,68.8,52.4,30.00,West,270,0.2,4.9,56,0.00,,,0.00,WUHU216HW,2013-03-16 20:15:00,
2013-03-16 13:20:00,68.8,52.4,30.00,WSW,248,1.3,4.9,56,0.00,,,0.00,WUHU216HW,2013-03-16 20:20:00,
2013-03-16 13:25:00,69.3,53.4,30.00,SSW,203,2.9,2.9,57,0.00,,,0.00,WUHU216HW,2013-03-16 20:25:00,
2013-03-16 13:30:00,69.7,53.3,29.99,WSW,248,2.5,4.0,56,0.00,,,0.00,WUHU216HW,2013-03-16 20:30:00,
2013-03-16 13:35:00,70.0,53.1,29.99,SSW,203,0.7,4.0,55,0.00,,,0.00,WUHU216HW,2013-03-16 20:35:00,
2013-03-16 13:40:00,70.4,53.4,29.99,South,180,2.0,2.9,55,0.00,,,0.00,WUHU216HW,2013-03-16 20:40:00,
2013-03-16 13:45:00,70.7,53.7,29.98,West,270,1.6,2.9,55,0.00,,,0.00,WUHU216HW,2013-03-16 20:45:00,
2013-03-16 13:50:00,70.9,53.9,29.97,South,180,1.3,2.9,55,0.00,,,0.00,WUHU216HW,2013-03-16 20:50:00,
2013-03-16 13:55:00,70.9,53.4,29.97,SSE,158,1.3,3.1,54,0.00,,,0.00,WUHU216HW,2013-03-16 20:55:00,
2013-03-16 14:00:00,71.1,52.6,29.97,SW,225,2.5,3.1,52,0.00,,,0.00,WUHU216HW,2013-03-16 21:00:00,
2013-03-16 14:05:00,71.5,52.8,29.97,ENE,68,1.6,2.9,52,0.00,,,0.00,WUHU216HW,2013-03-16 21:05:00,
2013-03-16 14:10:00,71.8,53.7,29.96,SW,225,1.1,3.4,53,0.00,,,0.00,WUHU216HW,2013-03-16 21:10:00,
2013-03-16 14:15:00,72.2,53.0,29.96,WNW,293,1.1,3.4,51,0.00,,,0.00,WUHU216HW,2013-03-16 21:15:00,
2013-03-16 14:20:00,72.4,52.1,29.96,NW,315,2.7,3.4,49,0.00,,,0.00,WUHU216HW,2013-03-16 21:20:00,
2013-03-16 14:25:00,72.4,52.7,29.96,SSW,203,3.6,4.0,50,0.00,,,0.00,WUHU216HW,2013-03-16 21:25:00,
2013-03-16 14:30:00,72.5,51.7,29.96,SW,225,0.7,4.0,48,0.00,,,0.00,WUHU216HW,2013-03-16 21:30:00,
2013-03-16 14:35:00,72.7,53.0,29.96,WNW,293,3.4,3.6,50,0.00,,,0.00,WUHU216HW,2013-03-16 21:35:00,
2013-03-16 14:40:00,72.5,50.5,29.96,North,0,1.1,3.8,46,0.00,,,0.00,WUHU216HW,2013-03-16 21:40:00,
2013-03-16 14:45:00,72.5,51.7,29.96,West,270,4.9,4.9,48,0.00,,,0.00,WUHU216HW,2013-03-16 21:45:00,
2013-03-16 14:50:00,72.7,50.6,29.96,WNW,293,2.0,6.3,46,0.00,,,0.00,WUHU216HW,2013-03-16 21:50:00,
2013-03-16 14:55:00,72.5,48.1,29.96,WNW,293,2.7,6.3,42,0.00,,,0.00,WUHU216HW,2013-03-16 21:55:00,
2013-03-16 15:00:00,72.5,50.5,29.96,WSW,248,4.7,6.3,46,0.00,,,0.00,WUHU216HW,2013-03-16 22:00:00,
2013-03-16 15:05:00,72.5,49.9,29.96,West,270,1.8,4.7,45,0.00,,,0.00,WUHU216HW,2013-03-16 22:05:00,
2013-03-16 15:10:00,72.5,49.2,29.96,WSW,248,3.4,5.4,44,0.00,,,0.00,WUHU216HW,2013-03-16 22:10:00,
2013-03-16 15:15:00,72.5,49.9,29.95,SW,225,2.7,5.4,45,0.00,,,0.00,WUHU216HW,2013-03-16 22:15:00,
2013-03-16 15:20:00,72.5,49.2,29.95,WNW,293,4.0,5.4,44,0.00,,,0.00,WUHU216HW,2013-03-16 22:20:00,
2013-03-16 15:25:00,72.5,48.7,29.95,WNW,293,1.1,5.4,43,0.00,,,0.00,WUHU216HW,2013-03-16 22:25:00,
2013-03-16 15:30:00,72.5,47.5,29.95,WNW,293,1.3,4.9,41,0.00,,,0.00,WUHU216HW,2013-03-16 22:30:00,
2013-03-16 15:35:00,72.5,47.5,29.95,SW,225,1.1,6.3,41,0.00,,,0.00,WUHU216HW,2013-03-16 22:35:00,
2013-03-16 15:40:00,72.7,47.6,29.95,WNW,293,2.0,6.3,41,0.00,,,0.00,WUHU216HW,2013-03-16 22:40:00,
2013-03-16 15:45:00,72.7,45.5,29.95,NNW,338,0.4,5.1,38,0.00,,,0.00,WUHU216HW,2013-03-16 22:45:00,
2013-03-16 15:50:00,72.7,46.3,29.95,WNW,293,4.9,5.1,39,0.00,,,0.00,WUHU216HW,2013-03-16 22:50:00,
2013-03-16 15:55:00,72.7,47.1,29.95,WNW,293,2.7,6.3,40,0.00,,,0.00,WUHU216HW,2013-03-16 22:55:00,
2013-03-16 16:00:00,72.9,47.8,29.95,SW,225,3.4,6.3,41,0.00,,,0.00,WUHU216HW,2013-03-16 23:00:00,
2013-03-16 16:05:00,72.9,47.3,29.95,West,270,4.0,6.7,40,0.00,,,0.00,WUHU216HW,2013-03-16 23:05:00,
2013-03-16 16:10:00,72.5,46.2,29.95,West,270,2.5,6.7,39,0.00,,,0.00,WUHU216HW,2013-03-16 23:10:00,
2013-03-16 16:15:00,72.5,46.2,29.95,WSW,248,0.7,5.4,39,0.00,,,0.00,WUHU216HW,2013-03-16 23:15:00,
2013-03-16 16:20:00,72.5,46.2,29.95,WNW,293,2.2,4.7,39,0.00,,,0.00,WUHU216HW,2013-03-16 23:20:00,
2013-03-16 16:25:00,72.4,44.5,29.95,West,270,3.1,5.4,37,0.00,,,0.00,WUHU216HW,2013-03-16 23:25:00,
2013-03-16 16:30:00,72.5,44.6,29.95,NNW,338,2.0,5.4,37,0.00,,,0.00,WUHU216HW,2013-03-16 23:30:00,
2013-03-16 16:35:00,72.7,45.5,29.95,WNW,293,2.7,5.4,38,0.00,,,0.00,WUHU216HW,2013-03-16 23:35:00,
2013-03-16 16:40:00,72.7,45.5,29.95,West,270,3.4,4.7,38,0.00,,,0.00,WUHU216HW,2013-03-16 23:40:00,
2013-03-16 16:45:00,72.9,45.0,29.95,NNW,338,1.1,4.3,37,0.00,,,0.00,WUHU216HW,2013-03-16 23:45:00,
2013-03-16 16:50:00,72.9,45.0,29.95,West,270,0.9,3.4,37,0.00,,,0.00,WUHU216HW,2013-03-16 23:50:00,
2013-03-16 16:55:00,73.1,45.1,29.95,WNW,293,2.7,3.6,37,0.00,,,0.00,WUHU216HW,2013-03-16 23:55:00,
2013-03-16 17:00:00,73.1,45.9,29.95,WSW,248,0.9,3.6,38,0.00,,,0.00,WUHU216HW,2013-03-17 00:00:00,
2013-03-16 17:05:00,73.3,46.0,29.95,WNW,293,1.3,2.7,38,0.00,,,0.00,WUHU216HW,2013-03-17 00:05:00,
2013-03-16 17:10:00,73.6,47.9,29.95,NW,315,3.6,3.6,40,0.00,,,0.00,WUHU216HW,2013-03-17 00:10:00,
2013-03-16 17:15:00,74.0,47.4,29.94,WNW,293,3.1,5.1,39,0.00,,,0.00,WUHU216HW,2013-03-17 00:15:00,
2013-03-16 17:20:00,74.2,46.8,29.95,West,270,2.5,5.1,38,0.00,,,0.00,WUHU216HW,2013-03-17 00:20:00,
2013-03-16 17:25:00,74.2,46.8,29.94,WNW,293,1.3,5.1,38,0.00,,,0.00,WUHU216HW,2013-03-17 00:25:00,
2013-03-16 17:30:00,74.0,46.7,29.94,WNW,293,3.4,3.4,38,0.00,,,0.00,WUHU216HW,2013-03-17 00:30:00,
2013-03-16 17:35:00,73.8,46.5,29.94,WNW,293,0.2,3.4,38,0.00,,,0.00,WUHU216HW,2013-03-17 00:35:00,
2013-03-16 17:40:00,73.8,47.3,29.94,NNW,338,1.6,3.4,39,0.00,,,0.00,WUHU216HW,2013-03-17 00:40:00,
2013-03-16 17:45:00,73.4,46.2,29.94,WNW,293,0.4,4.3,38,0.00,,,0.00,WUHU216HW,2013-03-17 00:45:00,
2013-03-16 17:50:00,73.4,46.2,29.94,WNW,293,0.0,4.3,38,0.00,,,0.00,WUHU216HW,2013-03-17 00:50:00,
2013-03-16 17:55:00,73.1,45.9,29.94,NNW,338,0.9,1.8,38,0.00,,,0.00,WUHU216HW,2013-03-17 00:55:00,
2013-03-16 18:00:00,72.7,46.3,29.94,NW,315,0.7,1.8,39,0.00,,,0.00,WUHU216HW,2013-03-17 01:00:00,
2013-03-16 18:05:00,72.7,47.1,29.93,North,0,0.4,1.3,40,0.00,,,0.00,WUHU216HW,2013-03-17 01:05:00,
2013-03-16 18:10:00,72.5,46.9,29.93,NNW,338,0.0,1.1,40,0.00,,,0.00,WUHU216HW,2013-03-17 01:10:00,
2013-03-16 18:15:00,72.4,46.7,29.93,North,0,0.9,1.8,40,0.00,,,0.00,WUHU216HW,2013-03-17 01:15:00,
2013-03-16 18:20:00,72.2,47.2,29.94,NNE,23,0.0,2.0,41,0.00,,,0.00,WUHU216HW,2013-03-17 01:20:00,
2013-03-16 18:25:00,71.8,46.8,29.94,NE,45,0.0,2.0,41,0.00,,,0.00,WUHU216HW,2013-03-17 01:25:00,
2013-03-16 18:30:00,71.6,46.7,29.94,NNE,23,0.0,1.3,41,0.00,,,0.00,WUHU216HW,2013-03-17 01:30:00,
2013-03-16 18:35:00,71.5,46.5,29.94,NNW,338,0.0,1.3,41,0.00,,,0.00,WUHU216HW,2013-03-17 01:35:00,
2013-03-16 18:40:00,71.3,46.4,29.94,NNW,338,0.4,0.9,41,0.00,,,0.00,WUHU216HW,2013-03-17 01:40:00,
2013-03-16 18:45:00,70.9,46.0,29.94,NNW,338,0.0,0.9,41,0.00,,,0.00,WUHU216HW,2013-03-17 01:45:00,
2013-03-16 18:50:00,70.7,46.4,29.94,NNW,338,0.0,0.7,42,0.00,,,0.00,WUHU216HW,2013-03-17 01:50:00,
2013-03-16 18:55:00,70.4,47.4,29.94,NNW,338,0.0,0.0,44,0.00,,,0.00,WUHU216HW,2013-03-17 01:55:00,
2013-03-16 19:00:00,70.0,47.6,29.94,NNW,338,0.0,0.0,45,0.00,,,0.00,WUHU216HW,2013-03-17 02:00:00,
2013-03-16 19:05:00,69.8,48.1,29.94,NNW,338,0.0,0.0,46,0.00,,,0.00,WUHU216HW,2013-03-17 02:05:00,
2013-03-16 19:10:00,69.5,48.3,29.94,NNW,338,0.0,0.0,47,0.00,,,0.00,WUHU216HW,2013-03-17 02:10:00,
2013-03-16 19:15:00,69.1,48.0,29.94,NNW,338,0.0,0.0,47,0.00,,,0.00,WUHU216HW,2013-03-17 02:15:00,
2013-03-16 19:20:00,68.8,47.6,29.94,NNW,338,0.0,0.0,47,0.00,,,0.00,WUHU216HW,2013-03-17 02:20:00,
2013-03-16 19:25:00,68.0,47.0,29.95,NNW,338,0.0,0.0,47,0.00,,,0.00,WUHU216HW,2013-03-17 02:25:00,
2013-03-16 19:30:00,67.7,47.3,29.94,NNW,338,0.0,0.0,48,0.00,,,0.00,WUHU216HW,2013-03-17 02:30:00,
2013-03-16 19:35:00,67.3,47.5,29.95,NNW,338,0.2,0.2,49,0.00,,,0.00,WUHU216HW,2013-03-17 02:35:00,
2013-03-16 19:40:00,66.6,46.3,29.95,NNW,338,0.0,0.2,48,0.00,,,0.00,WUHU216HW,2013-03-17 02:40:00,
2013-03-16 19:45:00,66.2,46.5,29.94,NNW,338,0.0,0.2,49,0.00,,,0.00,WUHU216HW,2013-03-17 02:45:00,
2013-03-16 19:50:00,65.5,46.4,29.95,NNW,338,0.0,0.0,50,0.00,,,0.00,WUHU216HW,2013-03-17 02:50:00,
2013-03-16 19:55:00,65.2,46.5,29.94,NNW,338,0.0,0.0,51,0.00,,,0.00,WUHU216HW,2013-03-17 02:55:00,
2013-03-16 20:00:00,64.8,46.2,29.94,NNW,338,0.0,0.0,51,0.00,,,0.00,WUHU216HW,2013-03-17 03:00:00,
2013-03-16 20:05:00,64.4,46.4,29.94,NNW,338,0.2,0.2,52,0.00,,,0.00,WUHU216HW,2013-03-17 03:05:00,
2013-03-16 20:10:00,63.9,46.4,29.95,NNW,338,0.0,0.2,53,0.00,,,0.00,WUHU216HW,2013-03-17 03:10:00,
2013-03-16 20:15:00,63.4,46.4,29.95,NNW,338,0.0,0.2,54,0.00,,,0.00,WUHU216HW,2013-03-17 03:15:00,
2013-03-16 20:20:00,63.0,46.5,29.95,NNW,338,0.0,0.0,55,0.00,,,0.00,WUHU216HW,2013-03-17 03:20:00,
2013-03-16 20:25:00,62.6,46.2,29.95,NW,315,0.0,0.0,55,0.00,,,0.00,WUHU216HW,2013-03-17 03:25:00,
2013-03-16 20:30:00,62.6,47.2,29.95,WSW,248,0.4,2.5,57,0.00,,,0.00,WUHU216HW,2013-03-17 03:30:00,
2013-03-16 20:35:00,62.1,46.6,29.95,WSW,248,0.0,2.5,57,0.00,,,0.00,WUHU216HW,2013-03-17 03:35:00,
2013-03-16 20:40:00,61.7,46.4,29.95,WSW,248,0.9,0.9,57,0.00,,,0.00,WUHU216HW,2013-03-17 03:40:00,
2013-03-16 20:45:00,61.4,47.0,29.96,WSW,248,0.7,1.1,59,0.00,,,0.00,WUHU216HW,2013-03-17 03:45:00,
2013-03-16 20:50:00,61.0,46.6,29.96,WSW,248,0.4,1.1,59,0.00,,,0.00,WUHU216HW,2013-03-17 03:50:00,
2013-03-16 20:55:00,60.8,46.5,29.96,WSW,248,0.0,0.4,59,0.00,,,0.00,WUHU216HW,2013-03-17 03:55:00,
2013-03-16 21:00:00,60.8,46.5,29.96,WSW,248,0.0,0.4,59,0.00,,,0.00,WUHU216HW,2013-03-17 04:00:00,
2013-03-16 21:05:00,60.8,46.5,29.96,WSW,248,0.0,0.4,59,0.00,,,0.00,WUHU216HW,2013-03-17 04:05:00,
2013-03-16 21:10:00,60.7,46.4,29.97,WSW,248,0.0,0.4,59,0.00,,,0.00,WUHU216HW,2013-03-17 04:10:00,
2013-03-16 21:15:00,60.5,46.2,29.97,WSW,248,0.7,1.1,59,0.00,,,0.00,WUHU216HW,2013-03-17 04:15:00,
2013-03-16 21:20:00,60.1,46.7,29.97,WSW,248,0.0,1.1,61,0.00,,,0.00,WUHU216HW,2013-03-17 04:20:00,
2013-03-16 21:25:00,59.6,46.2,29.97,WSW,248,0.0,0.7,61,0.00,,,0.00,WUHU216HW,2013-03-17 04:25:00,
2013-03-16 21:30:00,59.0,46.0,29.97,WSW,248,0.0,0.0,62,0.00,,,0.00,WUHU216HW,2013-03-17 04:30:00,
2013-03-16 21:35:00,58.5,45.9,29.98,WSW,248,0.0,0.4,63,0.00,,,0.00,WUHU216HW,2013-03-17 04:35:00,
2013-03-16 21:40:00,58.0,45.8,29.97,WSW,248,0.0,0.4,64,0.00,,,0.00,WUHU216HW,2013-03-17 04:40:00,
2013-03-16 21:45:00,58.0,46.3,29.98,WSW,248,0.7,0.7,65,0.00,,,0.00,WUHU216HW,2013-03-17 04:45:00,
2013-03-16 21:50:00,57.4,45.7,29.98,WSW,248,0.4,1.1,65,0.00,,,0.00,WUHU216HW,2013-03-17 04:50:00,
2013-03-16 21:55:00,57.4,46.1,29.98,WSW,248,0.0,1.1,66,0.00,,,0.00,WUHU216HW,2013-03-17 04:55:00,
2013-03-16 22:00:00,57.2,45.5,29.98,WSW,248,0.0,0.4,65,0.00,,,0.00,WUHU216HW,2013-03-17 05:00:00,
2013-03-16 22:05:00,57.2,45.9,29.98,WSW,248,0.9,0.9,66,0.00,,,0.00,WUHU216HW,2013-03-17 05:05:00,
2013-03-16 22:10:00,56.7,45.5,29.98,North,0,0.7,1.1,66,0.00,,,0.00,WUHU216HW,2013-03-17 05:10:00,
2013-03-16 22:15:00,56.3,45.9,29.99,North,0,0.4,1.1,68,0.00,,,0.00,WUHU216HW,2013-03-17 05:15:00,
2013-03-16 22:20:00,56.2,45.7,29.99,North,0,0.4,1.1,68,0.00,,,0.00,WUHU216HW,2013-03-17 05:20:00,
2013-03-16 22:25:00,55.8,45.8,29.99,North,0,0.0,0.4,69,0.00,,,0.00,WUHU216HW,2013-03-17 05:25:00,
2013-03-16 22:30:00,55.4,45.5,29.99,North,0,0.0,0.4,69,0.00,,,0.00,WUHU216HW,2013-03-17 05:30:00,
2013-03-16 22:35:00,55.4,45.1,29.99,North,0,0.0,0.2,68,0.00,,,0.00,WUHU216HW,2013-03-17 05:35:00,
2013-03-16 22:40:00,55.4,45.1,30.00,NNW,338,2.0,2.0,68,0.00,,,0.00,WUHU216HW,2013-03-17 05:40:00,
2013-03-16 22:45:00,55.3,44.9,30.02,NNW,338,1.6,5.1,68,0.00,,,0.00,WUHU216HW,2013-03-17 05:45:00,
2013-03-16 22:50:00,55.4,45.1,30.01,NE,45,1.6,5.1,68,0.00,,,0.00,WUHU216HW,2013-03-17 05:50:00,
2013-03-16 22:55:00,55.4,45.1,30.01,ENE,68,0.4,2.5,68,0.00,,,0.00,WUHU216HW,2013-03-17 05:55:00,
2013-03-16 23:00:00,55.6,45.3,30.01,NE,45,0.4,2.5,68,0.00,,,0.00,WUHU216HW,2013-03-17 06:00:00,
2013-03-16 23:05:00,55.6,44.8,30.01,NE,45,0.0,2.0,67,0.00,,,0.00,WUHU216HW,2013-03-17 06:05:00,
2013-03-16 23:10:00,55.6,44.8,30.01,ESE,113,1.1,1.3,67,0.00,,,0.00,WUHU216HW,2013-03-17 06:10:00,
2013-03-16 23:15:00,55.6,44.8,30.01,ESE,113,0.0,1.1,67,0.00,,,0.00,WUHU216HW,2013-03-17 06:15:00,
2013-03-16 23:20:00,55.6,44.8,30.01,ESE,113,0.2,1.1,67,0.00,,,0.00,WUHU216HW,2013-03-17 06:20:00,
2013-03-16 23:25:00,55.6,44.8,30.01,ESE,113,0.0,0.7,67,0.00,,,0.00,WUHU216HW,2013-03-17 06:25:00,
2013-03-16 23:30:00,55.4,44.6,30.01,ESE,113,0.0,0.9,67,0.00,,,0.00,WUHU216HW,2013-03-17 06:30:00,
2013-03-16 23:35:00,55.4,44.6,30.01,ESE,113,0.4,0.9,67,0.00,,,0.00,WUHU216HW,2013-03-17 06:35:00,
2013-03-16 23:40:00,55.3,44.5,30.01,ESE,113,0.0,0.4,67,0.00,,,0.00,WUHU216HW,2013-03-17 06:40:00,
2013-03-16 23:45:00,55.1,44.7,30.02,ESE,113,0.9,0.9,68,0.00,,,0.00,WUHU216HW,2013-03-17 06:45:00,
2013-03-16 23:50:00,54.9,44.6,30.02,ESE,113,1.1,1.1,68,0.00,,,0.00,WUHU216HW,2013-03-17 06:50:00,
2013-03-16 23:55:00,54.9,44.6,30.02,ESE,113,0.4,1.1,68,0.00,,,0.00,WUHU216HW,2013-03-17 06:55:00,